SCP
0 0 0 0 0 0 0 0 0 0 0 0 0 0 0 0 0 0 0 0 0 0 0 0 0 0 0 0 0 0 0 0 0 0 0 0 0 0 0 0 0 0 0
0 0 0 0 0 0 0 0 0 0 0 0 0 0 0 0 0 0 0 0 0 0 0 0 0 0 0 0 0 0 0 0 0 0 0 0 0 0 0 0 0 0 0
0 0 0 0 0 0 0 0 0 0 0 0 0 0 0 0 0 0 0 0 0 0 0 0 0 0 0 0 0 0 0 0 0 0 0 0 0 0 0 0 0 0 0
0 0 0 0 0 0 0 0 0 0 0 0 0 0 0 0 0 0 0 0 0 0 0 0 0 0 0 0 0 0 0 0 0 0 0 0 0 0 0 0 0 0 0
0 0 0 0 0 0 0 0 0 0 0 0 0 0 0 0 0 0 0 0 0 0 0 0 0 0 0 0 0 0 0 0 0 0 0 0 0 0 0 0 0 0 0
0 0 0 0 0 0 0 0 0 0 0 -0 -0 0 0 0 0 0 0 0 0 0 0 0 0 0 0 0 0 0 0 0 0 0 0 0 0 0 0 0 0 0 0
0 0 0 0 0 0 0 0 0 0 0 -0 -0 -0 -0 0 0 0 0 0 0 0 0 0 0 0 0 0 0 0 0 0 0 0 0 0 0 0 0 0 0 0 0
0 0 0 0 0 0 0 0 0 0 0 0 -0 -0 -0 -0 0 0 0 0 0 0 0 0 0 0 0 0 0 0 0 0 0 0 0 0 0 0 0 0 0 0 0
0 0 0 0 0 0 0 0 0 0 0 0 0 0 -0 -0 0 0 0 0 0 0 0 0 0 0 0 0 0 0 0 0 0 0 0 0 0 0 0 0 0 0 1
0 0 0 0 0 0 0 0 0 0 0 0 0 0 0 0 0 0 0 0 0 0 0 0 0 0 0 0 0 0 0 0 0 0 0 0 0 0 0 0 0 0 0
0 0 0 0 0 0 0 0 0 0 0 0 0 0 0 0 0 0 0 0 0 0 0 0 0 0 0 0 0 0 0 0 0 0 0 0 0 0 0 0 0 0 0
0 0 0 0 0 0 0 0 0 0 0 0 0 0 0 0 0 0 0 0 0 0 0 0 0 0 0 0 0 0 0 0 0 0 0 0 0 0 0 0 0 0 0
0 0 0 0 0 0 0 0 0 0 0 0 0 0 0 0 0 0 0 0 0 0 0 0 0 0 0 0 0 0 0 0 0 0 0 0 0 0 0 0 0 0 0
0 0 0 0 0 0 0 0 0 0 0 0 0 0 0 0 0 0 0 0 0 0 0 0 0 0 0 0 0 0 0 0 0 0 0 0 0 0 0 0 0 0 0
0 0 0 0 0 0 0 0 0 0 0 0 0 0 0 0 0 0 0 0 0 0 0 0 0 0 0 0 0 0 0 0 0 0 0 0 0 0 0 0 0 0 0
0 0 0 0 0 0 0 0 0 0 0 0 0 0 0 0 0 0 0 0 0 0 0 0 0 0 0 0 0 0 0 0 0 0 0 0 0 0 0 0 0 0 0
0 0 0 0 0 0 0 0 0 0 0 0 0 0 0 0 0 0 0 0 0 0 0 0 0 0 0 0 0 0 0 0 0 0 0 0 0 0 0 0 0 0 0
0 0 0 0 0 0 0 0 0 0 0 0 0 0 0 0 0 0 0 0 0 0 0 0 0 0 0 0 0 0 0 0 0 0 0 0 0 0 0 0 0 0 0
0 0 0 0 0 0 0 0 0 0 0 0 0 0 0 0 0 0 0 0 0 0 0 0 0 0 0 0 0 0 0 0 0 0 0 0 0 0 0 0 0 0 0
0 0 0 0 0 0 0 0 0 0 0 0 0 0 0 0 0 0 0 0 0 0 0 0 0 0 0 0 0 0 0 0 0 0 0 0 0 0 0 0 0 0 0
0 0 0 0 0 0 0 0 0 0 0 0 0 0 0 0 0 0 0 0 0 0 0 0 0 0 0 0 0 0 0 0 0 0 0 0 0 0 0 0 0 0 0
0 0 0 0 0 0 0 0 0 0 0 0 0 0 0 0 0 0 0 0 0 0 0 0 0 0 0 0 0 0 0 0 0 0 0 0 0 0 0 0 0 0 0
0 0 0 0 0 0 0 0 0 0 0 0 0 0 0 0 0 0 0 0 0 0 0 0 0 0 0 0 0 0 0 0 0 0 0 0 0 0 0 0 0 0 0
0 0 0 0 0 0 0 0 0 0 0 0 0 0 0 0 0 0 0 0 0 0 0 0 0 0 0 0 0 0 0 0 0 0 0 0 0 0 0 0 0 0 0
0 0 0 0 0 0 0 0 0 0 0 0 0 0 0 0 0 0 0 0 0 0 0 0 0 0 0 0 0 0 0 0 0 0 0 0 0 0 0 0 0 0 0
0 0 0 0 0 0 0 0 0 0 0 0 0 0 0 0 0 -0 0 0 0 0 0 0 0 0 0 0 0 0 0 0 0 0 0 0 0 0 0 0 0 0 0
Wind_Speed_500mb
10 13 16 17 18 20 21 23 25 26 27 27 25 23 19 16 14 16 19 21 23 22 20 21 19 17 24 28 27 25 25 22 23 22 24 25 25 24 22 19 14 12 15
11 12 13 12 13 15 18 22 26 31 35 35 33 31 28 23 21 21 22 22 23 22 20 20 20 20 19 24 32 34 31 30 28 26 26 25 29 28 27 25 22 18 16
10 8 6 6 7 12 16 21 26 31 36 40 40 38 35 27 23 21 23 26 25 22 19 19 22 22 22 22 25 32 38 35 34 33 30 29 28 31 32 32 30 26 22
9 5 2 4 9 12 18 23 28 34 40 46 49 46 41 32 28 26 24 23 24 22 16 14 15 19 22 22 22 24 28 38 39 38 38 36 34 32 32 36 35 34 30
10 9 10 12 15 18 22 26 32 39 46 50 53 52 45 39 18 12 8 5 5 10 12 12 13 14 15 21 19 20 21 26 34 42 41 43 39 39 37 35 39 40 39
15 17 20 21 22 25 27 30 35 39 45 53 58 56 48 31 31 27 22 13 11 12 12 12 16 20 21 25 22 18 18 19 21 28 40 45 47 42 41 42 40 43 45
21 25 28 29 29 33 33 33 37 41 45 53 61 63 56 43 28 4 1 15 19 21 24 25 26 28 28 28 27 28 23 17 21 23 25 35 46 50 44 44 46 45 46
30 34 35 34 37 40 38 36 40 44 48 51 53 55 37 52 8 13 45 24 34 38 37 41 41 40 37 33 30 33 34 36 37 35 30 29 34 49 53 46 47 50 48
37 39 39 40 42 43 41 41 44 47 51 52 48 39 22 14 61 35 53 51 42 43 42 39 39 37 41 43 43 42 42 44 48 48 36 31 27 36 49 51 50 49 52
40 43 44 42 44 45 47 48 51 53 55 57 55 48 43 46 45 49 64 67 65 58 53 49 46 43 41 42 45 46 44 43 41 47 52 45 34 32 34 46 58 50 50
37 41 41 41 40 42 44 46 49 51 58 62 57 54 53 52 50 56 68 77 74 69 61 58 55 53 51 50 52 52 46 45 47 44 42 48 44 38 36 39 44 58 59
40 42 44 44 42 43 45 49 54 59 60 61 57 56 57 58 59 58 66 68 77 81 74 69 62 57 54 53 52 55 58 63 58 50 47 43 54 49 43 43 44 52 63
42 42 40 42 46 49 51 56 59 62 60 60 57 58 58 60 58 59 63 74 74 78 79 76 68 60 55 50 45 42 47 52 57 66 68 49 47 48 53 53 51 49 60
39 41 46 49 50 55 58 60 63 63 61 62 62 62 63 62 59 58 61 64 76 72 68 74 68 54 53 50 48 45 49 49 47 47 58 61 60 55 56 53 50 51 53
39 45 49 54 56 58 62 65 66 68 66 64 66 66 64 64 60 60 59 57 61 73 74 59 62 71 70 71 69 63 63 68 69 61 52 48 55 48 50 50 52 56 55
42 47 49 53 59 63 64 65 67 66 66 66 64 64 66 64 62 58 58 61 60 65 77 69 66 76 74 67 59 53 48 45 47 65 73 58 50 54 48 48 47 49 52
46 49 55 59 59 61 60 61 62 64 64 65 65 64 63 57 59 56 52 56 66 66 75 100 77 75 71 65 59 56 56 55 54 51 56 77 67 59 58 54 57 59 62
48 52 53 57 60 60 59 59 62 60 59 61 62 60 63 65 65 64 67 71 71 70 74 95 81 81 81 75 66 63 57 55 56 54 52 49 68 74 67 65 58 62 66
50 55 59 61 61 61 64 62 60 61 59 57 65 73 65 54 58 64 70 72 70 71 76 87 94 86 82 71 64 62 55 50 50 57 56 56 55 63 78 73 70 65 63
58 61 60 59 60 60 60 61 59 63 69 71 68 63 63 65 64 66 70 74 72 75 78 81 83 83 79 71 74 75 72 63 58 52 47 49 52 55 58 78 73 69 60
59 57 56 56 57 55 56 62 68 60 59 59 61 64 65 66 62 64 71 69 71 66 67 76 78 77 74 63 71 67 69 67 63 55 58 56 56 54 59 58 69 74 64
53 52 54 57 57 60 61 60 52 53 54 59 63 64 58 60 58 59 55 55 57 58 58 60 55 46 59 67 68 70 71 68 70 61 54 49 40 54 53 56 73 69 68
53 55 57 59 62 68 67 52 50 52 58 59 55 56 61 54 59 57 57 55 56 58 56 58 65 67 70 73 78 74 74 75 74 74 56 60 47 42 37 37 46 55 57
58 57 59 62 74 68 55 53 49 52 55 55 53 52 47 46 48 49 57 60 64 65 65 66 68 72 70 65 73 72 70 80 71 68 61 67 53 48 33 32 43 50 44
57 58 69 76 58 57 55 48 46 50 52 55 50 41 48 47 49 50 57 65 70 73 68 63 62 68 61 65 68 70 83 77 72 66 64 59 57 54 50 47 48 52 55
58 71 71 57 54 50 45 43 44 48 53 54 50 51 46 46 49 54 58 65 70 77 74 67 66 46 44 49 62 78 85 77 75 47 63 62 56 49 48 59 48 56 55
Wind_Direction_500mb
149 117 105 94 83 70 55 45 35 28 20 12 0 349 334 310 287 272 268 271 278 283 291 296 291 276 251 245 245 242 239 239 238 235 239 235 233 230 227 225 222 218 208
149 128 108 91 73 55 38 28 21 15 8 1 357 349 339 321 299 279 269 266 261 266 284 292 294 290 275 256 245 243 240 237 237 238 238 240 238 236 234 235 233 228 219
162 147 117 76 42 28 17 13 8 4 1 360 356 351 343 337 321 299 277 265 260 256 264 276 289 290 291 285 268 253 246 242 238 234 237 241 240 238 237 234 234 231 228
191 197 247 323 339 352 353 352 351 352 352 351 352 349 344 338 322 303 291 280 268 265 263 277 297 301 303 300 288 274 257 245 239 237 234 234 241 237 235 235 236 233 230
230 254 281 300 319 329 332 334 338 340 342 342 343 343 342 341 342 333 332 335 278 241 254 266 276 291 301 312 307 295 275 257 246 240 238 236 236 239 236 234 233 235 234
260 276 288 297 306 311 316 320 326 332 337 336 335 335 336 335 323 295 266 253 248 251 241 239 256 270 284 293 290 297 300 280 267 251 239 238 237 236 239 236 233 232 235
278 284 288 290 297 304 308 311 319 323 330 332 332 328 330 331 326 232 312 263 258 254 248 257 264 270 275 271 268 269 263 255 273 283 269 247 240 240 239 238 236 232 231
291 289 291 290 297 302 303 306 315 319 325 330 330 330 329 332 260 247 294 286 274 268 273 261 272 274 265 259 253 254 259 265 268 271 275 272 255 242 237 237 238 236 233
287 287 290 288 296 298 297 299 310 314 316 320 319 316 319 303 310 314 302 303 297 293 288 281 276 272 263 260 261 260 260 262 265 268 269 270 269 259 242 234 238 235 234
277 280 283 285 291 291 295 300 307 310 311 312 309 304 297 292 293 302 300 300 301 298 296 291 285 276 266 264 263 266 263 259 259 263 265 264 263 264 261 242 241 236 234
269 266 269 273 273 275 282 291 298 300 302 302 302 300 296 292 289 287 293 298 297 299 298 295 292 286 279 271 264 261 260 259 255 256 262 259 262 261 261 257 248 236 230
269 263 262 266 264 272 282 289 293 295 296 296 296 294 293 293 293 292 290 293 296 298 298 297 295 292 288 283 276 268 264 259 258 259 260 263 260 260 259 261 261 247 234
275 271 264 268 276 285 289 292 294 296 296 294 293 292 290 289 291 289 288 290 291 294 296 295 295 294 293 290 285 280 274 270 264 257 256 258 258 257 258 257 258 258 243
278 275 280 285 286 290 293 296 298 298 298 297 296 294 294 290 290 286 284 289 291 289 291 292 296 294 294 293 287 280 269 264 259 257 256 259 252 253 254 256 255 255 255
280 285 289 293 295 296 298 297 295 294 294 292 291 290 289 289 287 284 281 279 280 285 286 286 285 289 292 292 289 286 275 266 257 252 250 250 252 247 247 252 253 254 254
291 294 295 294 293 293 293 293 292 291 290 289 289 289 288 286 286 281 278 277 274 276 280 280 281 289 293 292 291 285 278 277 270 256 249 245 242 239 243 247 252 256 254
295 297 296 296 296 296 295 293 292 292 291 291 291 291 290 288 286 281 279 277 274 272 271 280 281 287 287 288 285 282 280 275 268 264 260 248 244 242 240 247 252 260 257
300 302 302 302 302 300 299 297 296 292 290 292 292 289 288 287 281 277 280 279 273 272 268 275 280 282 284 285 282 279 276 274 267 265 259 260 249 243 245 244 252 261 254
306 308 307 306 304 303 301 302 301 299 295 287 287 292 295 290 286 274 272 275 274 273 271 273 278 282 285 286 289 287 277 278 271 266 260 259 257 252 245 243 247 253 245
310 308 307 306 305 305 304 305 303 296 292 292 295 292 290 287 286 281 276 273 274 273 273 268 268 278 280 281 280 283 282 281 281 273 270 266 262 260 259 241 239 245 248
309 310 310 311 310 310 311 311 305 301 297 295 292 292 291 288 284 275 273 274 282 283 279 272 268 269 272 277 275 285 279 282 281 278 275 268 255 261 261 243 236 241 239
312 313 316 314 313 317 311 310 301 298 298 295 292 293 294 292 289 285 282 280 279 279 279 282 263 269 276 274 281 275 269 270 271 276 277 275 269 265 259 250 230 233 234
316 316 316 316 314 311 313 307 302 299 296 301 299 299 292 290 288 288 283 280 283 281 279 275 277 278 278 277 277 266 262 259 259 265 266 274 271 265 254 250 227 230 238
316 317 316 313 310 310 309 306 303 299 299 302 301 301 295 294 303 301 296 293 290 287 282 281 279 281 280 269 264 264 270 260 267 264 263 262 258 245 235 231 228 224 226
318 315 313 313 311 307 309 306 304 303 303 303 306 302 301 296 304 299 292 287 286 281 282 280 272 279 270 269 266 270 246 246 238 244 251 249 254 246 238 238 232 232 231
314 313 316 313 307 309 307 308 307 305 308 314 306 302 307 302 296 296 291 286 280 279 281 284 286 269 272 278 274 270 249 230 232 234 246 241 248 244 253 242 250 235 236
Wind_Speed_850mb
10 13 16 17 18 20 21 23 25 26 27 27 25 23 19 16 14 16 19 21 23 22 20 21 19 17 24 28 27 25 25 22 23 22 24 25 25 24 22 19 14 12 15
11 12 13 12 13 15 18 22 26 31 35 35 33 31 28 23 21 21 22 22 23 22 20 20 20 20 19 24 32 34 31 30 28 26 26 25 29 28 27 25 22 18 16
10 8 6 6 7 12 16 21 26 31 36 40 40 38 35 27 23 21 23 26 25 22 19 19 22 22 22 22 25 32 38 35 34 33 30 29 28 31 32 32 30 26 22
9 5 2 4 9 12 18 23 28 34 40 46 49 46 41 32 28 26 24 23 24 22 16 14 15 19 22 22 22 24 28 38 39 38 38 36 34 32 32 36 35 34 30
10 9 10 12 15 18 22 26 32 39 46 50 53 52 45 39 18 12 8 5 5 10 12 12 13 14 15 21 19 20 21 26 34 42 41 43 39 39 37 35 39 40 39
15 17 20 21 22 25 27 30 35 39 45 53 58 56 48 31 31 27 22 13 11 12 12 12 16 20 21 25 22 18 18 19 21 28 40 45 47 42 41 42 40 43 45
21 25 28 29 29 33 33 33 37 41 45 53 61 63 56 43 28 4 1 15 19 21 24 25 26 28 28 28 27 28 23 17 21 23 25 35 46 50 44 44 46 45 46
30 34 35 34 37 40 38 36 40 44 48 51 53 55 37 52 8 13 45 24 34 38 37 41 41 40 37 33 30 33 34 36 37 35 30 29 34 49 53 46 47 50 48
37 39 39 40 42 43 41 41 44 47 51 52 48 39 22 14 61 35 53 51 42 43 42 39 39 37 41 43 43 42 42 44 48 48 36 31 27 36 49 51 50 49 52
40 43 44 42 44 45 47 48 51 53 55 57 55 48 43 46 45 49 64 67 65 58 53 49 46 43 41 42 45 46 44 43 41 47 52 45 34 32 34 46 58 50 50
37 41 41 41 40 42 44 46 49 51 58 62 57 54 53 52 50 56 68 77 74 69 61 58 55 53 51 50 52 52 46 45 47 44 42 48 44 38 36 39 44 58 59
40 42 44 44 42 43 45 49 54 59 60 61 57 56 57 58 59 58 66 68 77 81 74 69 62 57 54 53 52 55 58 63 58 50 47 43 54 49 43 43 44 52 63
42 42 40 42 46 49 51 56 59 62 60 60 57 58 58 60 58 59 63 74 74 78 79 76 68 60 55 50 45 42 47 52 57 66 68 49 47 48 53 53 51 49 60
39 41 46 49 50 55 58 60 63 63 61 62 62 62 63 62 59 58 61 64 76 72 68 74 68 54 53 50 48 45 49 49 47 47 58 61 60 55 56 53 50 51 53
39 45 49 54 56 58 62 65 66 68 66 64 66 66 64 64 60 60 59 57 61 73 74 59 62 71 70 71 69 63 63 68 69 61 52 48 55 48 50 50 52 56 55
42 47 49 53 59 63 64 65 67 66 66 66 64 64 66 64 62 58 58 61 60 65 77 69 66 76 74 67 59 53 48 45 47 65 73 58 50 54 48 48 47 49 52
46 49 55 59 59 61 60 61 62 64 64 65 65 64 63 57 59 56 52 56 66 66 75 100 77 75 71 65 59 56 56 55 54 51 56 77 67 59 58 54 57 59 62
48 52 53 57 60 60 59 59 62 60 59 61 62 60 63 65 65 64 67 71 71 70 74 95 81 81 81 75 66 63 57 55 56 54 52 49 68 74 67 65 58 62 66
50 55 59 61 61 61 64 62 60 61 59 57 65 73 65 54 58 64 70 72 70 71 76 87 94 86 82 71 64 62 55 50 50 57 56 56 55 63 78 73 70 65 63
58 61 60 59 60 60 60 61 59 63 69 71 68 63 63 65 64 66 70 74 72 75 78 81 83 83 79 71 74 75 72 63 58 52 47 49 52 55 58 78 73 69 60
59 57 56 56 57 55 56 62 68 60 59 59 61 64 65 66 62 64 71 69 71 66 67 76 78 77 74 63 71 67 69 67 63 55 58 56 56 54 59 58 69 74 64
53 52 54 57 57 60 61 60 52 53 54 59 63 64 58 60 58 59 55 55 57 58 58 60 55 46 59 67 68 70 71 68 70 61 54 49 40 54 53 56 73 69 68
53 55 57 59 62 68 67 52 50 52 58 59 55 56 61 54 59 57 57 55 56 58 56 58 65 67 70 73 78 74 74 75 74 74 56 60 47 42 37 37 46 55 57
58 57 59 62 74 68 55 53 49 52 55 55 53 52 47 46 48 49 57 60 64 65 65 66 68 72 70 65 73 72 70 80 71 68 61 67 53 48 33 32 43 50 44
57 58 69 76 58 57 55 48 46 50 52 55 50 41 48 47 49 50 57 65 70 73 68 63 62 68 61 65 68 70 83 77 72 66 64 59 57 54 50 47 48 52 55
58 71 71 57 54 50 45 43 44 48 53 54 50 51 46 46 49 54 58 65 70 77 74 67 66 46 44 49 62 78 85 77 75 47 63 62 56 49 48 59 48 56 55
Wind_Direction_850mb
149 117 105 94 83 70 55 45 35 28 20 12 0 349 334 310 287 272 268 271 278 283 291 296 291 276 251 245 245 242 239 239 238 235 239 235 233 230 227 225 222 218 208
149 128 108 91 73 55 38 28 21 15 8 1 357 349 339 321 299 279 269 266 261 266 284 292 294 290 275 256 245 243 240 237 237 238 238 240 238 236 234 235 233 228 219
162 147 117 76 42 28 17 13 8 4 1 360 356 351 343 337 321 299 277 265 260 256 264 276 289 290 291 285 268 253 246 242 238 234 237 241 240 238 237 234 234 231 228
191 197 247 323 339 352 353 352 351 352 352 351 352 349 344 338 322 303 291 280 268 265 263 277 297 301 303 300 288 274 257 245 239 237 234 234 241 237 235 235 236 233 230
230 254 281 300 319 329 332 334 338 340 342 342 343 343 342 341 342 333 332 335 278 241 254 266 276 291 301 312 307 295 275 257 246 240 238 236 236 239 236 234 233 235 234
260 276 288 297 306 311 316 320 326 332 337 336 335 335 336 335 323 295 266 253 248 251 241 239 256 270 284 293 290 297 300 280 267 251 239 238 237 236 239 236 233 232 235
278 284 288 290 297 304 308 311 319 323 330 332 332 328 330 331 326 232 312 263 258 254 248 257 264 270 275 271 268 269 263 255 273 283 269 247 240 240 239 238 236 232 231
291 289 291 290 297 302 303 306 315 319 325 330 330 330 329 332 260 247 294 286 274 268 273 261 272 274 265 259 253 254 259 265 268 271 275 272 255 242 237 237 238 236 233
287 287 290 288 296 298 297 299 310 314 316 320 319 316 319 303 310 314 302 303 297 293 288 281 276 272 263 260 261 260 260 262 265 268 269 270 269 259 242 234 238 235 234
277 280 283 285 291 291 295 300 307 310 311 312 309 304 297 292 293 302 300 300 301 298 296 291 285 276 266 264 263 266 263 259 259 263 265 264 263 264 261 242 241 236 234
269 266 269 273 273 275 282 291 298 300 302 302 302 300 296 292 289 287 293 298 297 299 298 295 292 286 279 271 264 261 260 259 255 256 262 259 262 261 261 257 248 236 230
269 263 262 266 264 272 282 289 293 295 296 296 296 294 293 293 293 292 290 293 296 298 298 297 295 292 288 283 276 268 264 259 258 259 260 263 260 260 259 261 261 247 234
275 271 264 268 276 285 289 292 294 296 296 294 293 292 290 289 291 289 288 290 291 294 296 295 295 294 293 290 285 280 274 270 264 257 256 258 258 257 258 257 258 258 243
278 275 280 285 286 290 293 296 298 298 298 297 296 294 294 290 290 286 284 289 291 289 291 292 296 294 294 293 287 280 269 264 259 257 256 259 252 253 254 256 255 255 255
280 285 289 293 295 296 298 297 295 294 294 292 291 290 289 289 287 284 281 279 280 285 286 286 285 289 292 292 289 286 275 266 257 252 250 250 252 247 247 252 253 254 254
291 294 295 294 293 293 293 293 292 291 290 289 289 289 288 286 286 281 278 277 274 276 280 280 281 289 293 292 291 285 278 277 270 256 249 245 242 239 243 247 252 256 254
295 297 296 296 296 296 295 293 292 292 291 291 291 291 290 288 286 281 279 277 274 272 271 280 281 287 287 288 285 282 280 275 268 264 260 248 244 242 240 247 252 260 257
300 302 302 302 302 300 299 297 296 292 290 292 292 289 288 287 281 277 280 279 273 272 268 275 280 282 284 285 282 279 276 274 267 265 259 260 249 243 245 244 252 261 254
306 308 307 306 304 303 301 302 301 299 295 287 287 292 295 290 286 274 272 275 274 273 271 273 278 282 285 286 289 287 277 278 271 266 260 259 257 252 245 243 247 253 245
310 308 307 306 305 305 304 305 303 296 292 292 295 292 290 287 286 281 276 273 274 273 273 268 268 278 280 281 280 283 282 281 281 273 270 266 262 260 259 241 239 245 248
309 310 310 311 310 310 311 311 305 301 297 295 292 292 291 288 284 275 273 274 282 283 279 272 268 269 272 277 275 285 279 282 281 278 275 268 255 261 261 243 236 241 239
312 313 316 314 313 317 311 310 301 298 298 295 292 293 294 292 289 285 282 280 279 279 279 282 263 269 276 274 281 275 269 270 271 276 277 275 269 265 259 250 230 233 234
316 316 316 316 314 311 313 307 302 299 296 301 299 299 292 290 288 288 283 280 283 281 279 275 277 278 278 277 277 266 262 259 259 265 266 274 271 265 254 250 227 230 238
316 317 316 313 310 310 309 306 303 299 299 302 301 301 295 294 303 301 296 293 290 287 282 281 279 281 280 269 264 264 270 260 267 264 263 262 258 245 235 231 228 224 226
318 315 313 313 311 307 309 306 304 303 303 303 306 302 301 296 304 299 292 287 286 281 282 280 272 279 270 269 266 270 246 246 238 244 251 249 254 246 238 238 232 232 231
314 313 316 313 307 309 307 308 307 305 308 314 306 302 307 302 296 296 291 286 280 279 281 284 286 269 272 278 274 270 249 230 232 234 246 241 248 244 253 242 250 235 236